Location: Cuisy
(49.4182°N, 3.2458°E)
Time: 09:16:01
(UTC+00:00)

Daily predictions for brighter satellites

Satellite Brightness Start Highest point End
(mag) Time Altitude Azimuth Time Altitude Azimuth Time Altitude Azimuth
Meteor 2-17 Rocket 4.5 17:08:28 10° N 17:14:39 73° ENE 17:20:47 10° SSE
Cosmos 1408 3.6 17:16:02 10° SE 17:18:46 23° E 17:21:31 10° NE
Cosmos 1703 3.1 17:15:32 10° S 17:19:20 79° E 17:23:10 10° NNE
NOAA 6 4.0 17:14:35 10° SSE 17:19:40 69° ENE 17:24:50 10° N
Cosmos 2279 Rocket 4.2 17:16:24 10° SSW 17:22:35 81° W 17:28:51 10° N
SL-16 R/B 3.2 17:18:21 10° SSE 17:22:57 26° ESE 17:27:35 10° NE
ARGOS 3.9 17:19:07 10° S 17:24:23 60° W 17:29:43 10° NNW
Timation 2 Rocket 4.0 17:18:23 10° NNW 17:24:35 76° ENE 17:31:02 10° SE
SKYMED 2 4.3 17:21:40 10° NNE 17:25:39 33° E 17:29:35 10° SSE
Cosmos 1340 Rocket 3.1 17:23:33 10° SSE 17:27:14 43° E 17:30:58 10° NNE
ATLAS CENTAUR R/B 1.7 17:23:34 10° SSW 17:28:16 72° SE 17:32:49 10° NE
Cosmos 1825 3.9 17:26:51 10° ESE 17:28:46 14° E 17:30:41 10° NE
BlueWalker 3 2.0 17:27:00 10° WSW 17:30:52 74° NNW 17:34:32 11° ENE
NOSS 2-1 (C) 4.4 17:26:51 10° NW 17:31:06 65° SW 17:37:06 10° SSE
ISS -3.5 17:29:57 10° WNW 17:33:19 71° SSW 17:36:40 10° ESE
ATLAS 5 CENTAUR R/B 3.3 17:30:23 10° WNW 17:33:25 21° NNW 17:36:50 10° NNE
Cosmos 1025 Rocket 4.2 17:29:54 10° SSW 17:34:00 45° WNW 17:38:08 10° N
BREEZE-M DEB (TANK) 3.0 17:31:46 10° WSW 17:34:40 52° SSE 17:40:29 10° E
Cosmos 44 3.5 17:30:33 10° SW 17:34:51 60° NW 17:39:21 10° NE
Cosmos 2369 3.9 17:30:01 10° SSW 17:35:40 78° WNW 17:41:24 10° NNE
Cosmos 1607 3.9 17:30:45 10° SSW 17:36:51 78° SE 17:43:03 10° NE
Cosmos 1980 Rocket 2.4 17:31:39 10° SSW 17:37:18 76° WNW 17:43:02 10° NNE
YAOGAN 1 3.4 17:36:06 10° SE 17:39:49 29° ENE 17:43:34 10° N
Radarsat Rocket 4.2 17:34:55 10° SSE 17:40:57 89° WSW 17:47:41 10° NNW
Cosmos 468 Rocket 4.5 17:37:41 10° NNW 17:42:31 37° ENE 17:47:17 10° SE
Cosmos 1697 Rocket 3.9 17:38:27 10° WSW 17:43:45 40° NW 17:49:04 10° NNE
ADEOS 4.3 17:42:03 10° S 17:47:12 60° WSW 17:52:22 10° NNW
USA 290 2.4 17:45:19 10° SSW 17:48:31 72° WNW 17:51:46 10° NNE
Cosmos 1536 Rocket 3.4 17:45:42 10° S 17:50:00 73° E 17:54:20 10° NNE
APEX 4.5 17:44:40 10° S 17:50:32 51° ESE 17:56:01 10° NE
Cosmos 2263 Rocket 3.1 17:45:15 10° NW 17:50:39 52° WSW 17:56:01 10° S
Cosmos 1340 4.3 17:48:57 10° NNE 17:50:51 16° NE 17:50:51 16° NE
Cosmos 2251 Rocket 3.9 17:55:37 10° SSW 18:00:57 70° WNW 18:06:21 10° NNE
Cosmos 1606 Rocket 3.6 17:57:22 10° N 18:01:36 52° ENE 18:05:49 10° SSE
Cosmos 1763 Rocket 3.4 17:58:12 10° NNW 18:03:24 64° ENE 18:08:29 10° SE
PSLV R/B 3.7 18:01:51 10° SSE 18:05:24 51° ENE 18:09:01 10° N
YAOGAN 3 4.5 18:02:23 10° SSE 18:06:43 78° ENE 18:11:05 10° N
Cosmos 1328 3.8 18:04:08 10° S 18:08:07 84° W 18:12:07 10° N
CZ-4 R/B 2.0 18:05:38 10° SE 18:09:22 34° ENE 18:13:05 10° N
IGS 5A 4.4 18:10:16 24° ENE 18:10:39 25° ENE 18:14:01 10° N
Cosmos 2228 3.2 18:06:26 10° NNW 18:10:40 73° W 18:14:52 10° S
Meteor 1-11 4.3 18:05:01 10° S 18:10:41 56° E 18:16:21 10° NNE
ATLAS 2AS CENTAUR R/B 2.7 18:03:32 10° NW 18:10:41 85° NE 18:17:22 10° SE
Lacrosse 5 rocket 1.7 18:08:33 10° NW 18:11:56 38° NNE 18:13:08 29° ENE
MOS 1-B 4.3 18:06:42 10° SSE 18:12:23 61° ENE 18:18:07 10° N
COSMO-SKYMED 1 2.6 18:09:27 10° NNE 18:13:49 83° WNW 18:18:10 10° SSW
Cosmos 1892 Rocket 4.1 18:09:51 10° SSE 18:13:51 34° E 18:17:32 12° NNE
Cosmos 841 Rocket 4.1 18:09:04 10° N 18:13:54 35° NE 18:16:40 21° ESE
Cosmos 1244 Rocket 4.5 18:11:12 10° N 18:17:32 65° ENE 18:23:46 10° SSE
CZ-4B DEB 4.4 18:13:17 10° S 18:18:43 76° WSW 18:24:13 10° NNW
MINOTAUR 4 R/B 4.4 18:19:36 36° ENE 18:20:04 38° E 18:23:16 10° S
Cosmos 1844 Rocket 2.6 18:16:33 10° NNW 18:22:09 69° ENE 18:27:41 10° SE
RESURS DK-1 2.7 18:18:27 10° NNW 18:22:25 44° NE 18:23:47 32° E
Cosmos 724 4.4 18:17:09 10° SW 18:23:06 80° NW 18:28:28 14° NE
Cosmos 540 Rocket 3.4 18:18:20 10° NNW 18:23:29 61° ENE 18:28:33 10° SE
CZ-4B R/B 3.1 18:18:29 10° SSE 18:23:46 68° ENE 18:29:11 10° N
CZ-4C R/B 3.4 18:21:47 10° N 18:25:42 71° WNW 18:29:23 10° SSW
Cosmos 1745 Rocket 4.3 18:25:04 10° N 18:31:02 43° ENE 18:36:53 10° SE
Cosmos 1844 3.7 18:25:52 10° NNW 18:31:42 71° ENE 18:37:20 11° SE
Cosmos 676 Rocket 3.9 18:29:00 10° S 18:34:15 68° ESE 18:38:26 16° NNE
Cosmos 1726 Rocket 3.4 18:30:16 10° N 18:34:36 86° ENE 18:38:55 10° S
Cosmos 2278 4.3 18:31:00 10° SW 18:36:34 56° NW 18:42:12 10° NNE
Gblst 52 Del rocket 4.1 18:31:09 10° SW 18:36:43 70° SSE 18:39:00 35° E
Lacrosse 5 2.1 18:31:49 10° SSW 18:36:45 52° SE 18:38:20 38° E
Cosmos 407 Rocket 4.3 18:32:15 10° SW 18:37:15 49° WNW 18:42:15 10° NNE
IRIDIUM 106 4.2 18:32:23 10° N 18:37:37 65° E 18:42:47 10° SSE
Okean-O 4.4 18:40:05 18° NNE 18:40:05 18° NNE 18:41:39 10° N
Cosmos 1386 Rocket 4.5 18:33:07 10° N 18:38:59 51° ENE 18:44:50 10° SSE
Okean O Rocket 1.5 18:34:58 10° SSE 18:39:18 64° ENE 18:43:41 10° N
COSMOS 2455 4.1 18:33:49 10° WSW 18:39:23 37° NW 18:44:54 10° NNE
Cosmos 2360 Rocket 2.3 18:37:13 10° S 18:42:38 50° ESE 18:44:47 33° ENE
Feng Yun 1-1 Rocket 4.1 18:37:41 10° SSE 18:43:12 66° ENE 18:48:37 10° N
Cosmos 2333 Rocket 2.7 18:38:56 10° S 18:43:54 35° ESE 18:43:54 35° ESE
Cosmos 2219 Rocket 3.7 18:39:48 10° SSE 18:41:44 18° SE 18:41:44 18° SE
Cosmos 1892 3.5 18:42:57 10° SSW 18:46:34 49° WNW 18:50:14 10° N
Cosmos 2278 Rocket 3.6 18:43:32 10° N 18:47:29 22° NE 18:47:29 22° NE
Cosmos 1709 Rocket 4.3 18:44:03 10° N 18:49:48 39° ENE 18:50:12 38° E
Cosmos 2322 Rocket 2.1 18:47:46 10° SSW 18:53:23 84° ESE 18:56:48 25° NNE
SL-4 R/B 1.9 18:49:58 10° W 18:53:25 59° N 18:53:25 59° N
Cosmos 1553 Rocket 3.8 18:50:59 10° S 18:57:03 80° E 19:03:15 10° NNE
Cosmos 1417 Rocket 4.4 18:53:54 10° S 19:00:04 63° E 19:06:12 10° NNE
Cosmos 1633 3.1 18:57:49 10° SSW 19:00:25 49° SW 19:00:25 49° SW
Cosmos 1825 2.9 18:59:54 10° SSW 19:03:31 50° WNW 19:05:43 21° N
SL-16 R/B 2.7 19:01:04 10° SW 19:06:39 60° WNW 19:10:52 18° NNE
Cosmos 2058 Rocket 3.1 19:02:22 10° NNW 19:06:47 78° W 19:09:52 19° S
Cosmos 2333 4.5 19:01:39 10° S 19:06:19 47° SE 19:06:19 47° SE
ATLAS CENTAUR R/B 3.4 19:03:18 10° W 19:07:14 26° NW 19:09:14 19° N
ISS -1.2 19:07:22 10° W 19:09:36 17° SW 19:10:24 15° SSW
BlueWalker 3 2.8 19:06:04 10° WNW 19:09:19 43° NNW 19:09:19 43° NNW
CSL-04 Debris 4.0 19:12:45 52° SE 19:14:05 75° ENE 19:19:29 10° NNW
YAOGAN 1 4.2 19:11:53 10° SSW 19:15:48 34° W 19:19:46 10° NNW
Cosmos 1461 3.2 19:14:19 10° SW 19:17:57 64° SW 19:17:57 64° SW
ATLAS 5 CENTAUR R/B 3.9 19:17:01 10° NNW 19:19:29 15° N 19:19:29 15° N
CSL-04 Rocket 3.4 19:22:03 77° E 19:22:13 78° ENE 19:27:38 10° NNW
Cosmos 1980 Rocket 4.4 19:18:15 10° W 19:22:19 20° NW 19:26:24 10° N
Cosmos 1869 4.4 19:20:32 10° NNW 19:24:12 41° W 19:25:46 27° SW
Cosmos 1340 4.3 19:23:16 10° NNW 19:25:20 29° NW 19:25:20 29° NW
CZ-2C R/B 3.6 19:30:39 65° E 19:30:39 65° E 19:43:23 10° S
S3M 3.9 19:24:45 10° S 19:31:10 86° E 19:37:36 10° N
Cosmos 1943 Rocket 4.1 19:33:12 10° N 19:35:14 17° N 19:35:14 17° N
CZ-4 R/B 3.5 19:40:49 10° SSW 19:44:18 26° W 19:47:46 10° NW
Lacrosse 5 rocket 3.7 19:47:22 10° WNW 19:48:32 19° WNW 19:48:32 19° WNW
Okean O Rocket 4.4 20:13:21 10° SW 20:16:04 16° W 20:18:49 10° NW
Lacrosse 5 3.6 20:14:49 10° W 20:17:34 30° W 20:17:34 30° W
Cosmos 2360 Rocket 3.6 20:21:43 10° WSW 20:26:38 34° NW 20:26:38 34° NW
Cosmos 2219 Rocket 4.3 20:22:15 10° SW 20:23:32 17° SW 20:23:32 17° SW
Cosmos 2333 Rocket 3.7 20:22:41 10° SW 20:26:00 32° WSW 20:26:00 32° WSW
Cosmos 2278 Rocket 4.0 20:27:04 10° NNW 20:29:21 25° NNW 20:29:21 25° NNW
Cosmos 2322 Rocket 4.1 20:33:42 10° W 20:38:08 23° NW 20:38:40 23° NNW
